Theta_e
314 315 315 315 315 314 314 314 314 315 315 314 314 314 314 314 313 312 310 309 307 309 310 310 308 306 307 307 309 308 308 314 321 325 326 323 320 321 320 319 317 316 319 332 338 334 338 344 344 344 343 345 346 345 348 350 352 356 363 363 358 361 364 365 367 366 364 366 366 365 364 366 366 363 362 361 362 356 353 352 347 345 344 346 349 348 347 347
314 314 315 315 315 314 314 314 314 314 314 314 313 314 315 314 313 313 313 311 309 309 309 310 309 307 307 307 309 308 311 320 324 324 324 321 323 324 322 322 318 314 323 335 338 337 340 343 343 339 340 345 346 345 347 349 353 357 365 362 360 365 365 364 365 362 363 365 365 365 364 364 365 362 362 363 361 355 355 353 346 345 346 347 349 348 348 347
314 314 315 315 314 314 314 314 314 313 313 313 314 314 314 314 314 315 315 314 312 309 309 310 309 308 307 308 309 309 316 324 327 327 327 322 323 324 322 322 318 315 323 335 338 339 341 340 339 335 338 346 346 345 347 351 355 357 363 364 363 364 363 364 365 363 364 364 365 365 364 364 363 361 361 361 358 356 357 353 349 349 348 347 347 348 348 348
314 314 314 314 314 314 314 314 314 314 314 314 314 314 314 314 314 315 315 314 311 309 310 310 309 308 307 309 308 310 320 328 330 332 330 326 324 321 319 319 316 313 322 335 340 340 340 338 335 334 338 346 346 346 349 351 356 358 360 364 363 361 364 365 364 364 362 363 366 365 365 365 362 361 362 362 362 358 356 352 349 349 349 347 346 347 349 348
314 314 314 314 314 314 313 313 314 314 314 314 314 315 314 314 314 314 313 311 310 310 312 311 310 309 308 309 308 314 324 329 333 334 326 324 322 321 320 318 314 313 322 334 341 341 337 336 333 333 337 344 347 346 351 351 354 358 358 359 357 358 364 366 363 363 363 363 365 365 364 363 362 363 362 364 367 360 353 350 349 347 347 347 346 347 347 347
314 314 314 314 314 314 313 313 313 313 315 315 315 315 314 313 312 312 311 311 311 312 312 312 310 308 308 308 310 319 326 326 334 331 321 319 319 319 320 319 314 314 323 333 342 340 332 334 332 333 336 342 347 346 350 350 352 359 359 354 352 357 364 363 361 363 363 365 365 364 363 362 363 363 361 365 367 360 350 349 348 347 347 347 347 346 346 346
313 313 313 313 314 313 313 313 313 313 315 315 315 315 313 312 311 311 311 311 312 312 313 312 310 309 308 309 315 323 324 323 329 327 317 314 314 317 319 318 312 316 326 334 342 337 330 333 333 334 336 341 346 345 347 350 354 357 358 355 351 355 360 361 360 362 363 365 365 363 363 363 364 364 361 365 365 358 350 348 346 347 348 346 345 345 345 345
312 312 313 313 313 313 313 312 312 313 314 315 315 314 312 312 311 311 312 313 314 314 314 312 311 309 308 313 322 326 325 327 328 322 314 312 314 317 318 315 313 319 328 336 342 334 329 332 332 334 336 343 344 343 346 350 355 356 356 354 349 354 358 359 360 361 363 363 363 364 364 364 363 363 363 366 363 355 348 347 346 346 346 344 344 344 345 345
312 312 312 312 312 312 312 313 313 313 313 314 315 313 312 312 311 312 313 314 315 315 315 312 310 308 309 316 323 323 327 330 325 319 312 313 316 316 316 317 318 324 332 340 343 335 329 329 333 334 336 341 341 341 344 350 358 356 354 353 349 356 359 360 362 362 363 363 363 365 366 365 362 361 363 365 363 355 346 346 346 345 344 343 343 343 343 343
312 312 312 312 313 313 313 313 314 314 314 314 314 313 313 311 311 313 314 315 315 315 314 312 309 309 313 321 322 323 328 329 323 319 316 317 318 317 317 320 321 327 337 342 342 334 328 330 333 335 337 340 339 341 342 349 357 355 353 352 348 355 358 358 363 363 363 365 364 365 367 367 363 363 365 362 361 355 347 347 345 345 344 343 343 342 342 343
313 313 313 314 314 314 314 314 314 315 315 315 313 312 312 311 312 314 314 314 314 315 314 311 309 311 317 322 322 325 329 328 325 320 319 320 320 319 321 323 324 331 339 341 339 332 328 330 333 334 337 338 337 341 341 345 353 351 350 352 345 350 358 359 363 362 364 365 363 365 367 367 364 365 366 362 358 355 348 348 346 344 344 342 343 341 342 342
313 313 314 314 314 315 314 314 314 314 315 314 313 312 312 312 314 314 314 314 315 315 313 311 308 311 320 323 321 326 329 329 327 322 321 321 321 323 324 324 326 333 339 338 334 329 327 330 331 334 336 336 337 339 341 344 348 348 346 350 344 345 359 361 364 365 365 365 362 364 366 367 368 366 364 361 356 353 349 348 346 344 344 342 343 340 341 342
313 313 314 314 314 314 314 315 314 313 313 313 313 312 312 313 314 313 314 315 315 313 312 310 308 314 323 325 323 325 329 330 328 324 321 321 322 324 327 326 327 333 336 334 330 327 327 328 328 331 331 333 336 338 341 342 346 349 344 347 343 343 361 364 363 366 366 365 362 360 360 363 369 366 362 361 358 352 349 347 346 345 344 342 341 341 341 342
314 314 313 313 313 313 314 315 314 313 313 313 313 312 312 313 313 313 315 314 312 311 311 308 310 319 324 327 327 325 330 331 329 327 323 323 324 324 329 329 329 330 332 329 329 327 326 327 327 327 328 331 333 336 340 343 345 350 344 346 340 338 353 364 358 363 366 362 361 360 357 362 368 366 363 362 358 355 349 347 347 344 345 343 341 342 342 342
314 314 314 313 313 313 314 314 314 313 313 313 313 313 313 313 313 314 313 311 310 310 310 309 313 323 327 328 328 325 329 331 329 330 327 328 326 326 330 329 328 329 329 328 327 327 325 326 325 325 327 327 332 337 340 343 344 349 339 335 338 335 350 368 358 360 366 361 361 359 357 363 368 364 363 362 361 360 354 346 346 344 344 345 342 343 343 341
314 314 314 314 314 314 314 314 314 313 313 313 312 313 313 312 312 313 311 310 311 309 310 315 319 324 327 329 328 323 326 327 328 331 331 330 328 328 328 327 328 326 328 328 326 327 326 325 325 325 326 328 334 339 340 336 334 344 339 327 331 333 346 363 360 357 364 362 362 359 358 365 368 363 362 364 363 363 359 348 347 346 344 345 343 343 342 342
314 314 315 315 315 315 315 314 314 313 313 313 313 313 311 312 311 311 310 310 310 309 314 324 325 323 325 327 326 324 325 326 327 329 329 329 328 328 328 326 326 327 327 326 326 327 325 325 325 323 326 328 335 340 333 324 323 332 336 330 332 332 340 353 359 360 360 362 365 360 360 363 364 362 361 364 363 363 360 351 346 346 346 346 344 344 343 342
314 314 314 315 315 316 315 315 314 314 313 313 313 313 311 311 310 312 313 313 314 316 319 326 327 326 324 323 327 326 324 325 328 329 328 327 326 326 327 326 325 326 324 326 325 325 325 324 324 325 326 328 336 338 326 322 323 324 327 328 329 333 340 348 357 362 359 361 363 359 361 364 363 362 362 363 363 361 361 357 352 346 346 346 343 344 344 343
313 314 314 315 315 315 315 315 314 314 313 313 314 315 315 314 314 319 322 320 321 323 325 325 324 327 325 321 326 326 323 325 327 328 326 327 327 326 326 325 325 324 324 325 324 325 324 322 322 323 322 326 334 335 331 331 331 329 331 331 327 330 343 354 358 359 359 362 363 360 361 364 363 363 364 362 362 361 361 360 359 352 346 346 344 344 345 344
314 314 314 315 316 316 315 314 314 314 313 313 318 321 322 322 322 323 325 325 324 325 325 323 321 323 324 323 326 324 325 326 326 325 326 327 328 326 324 324 323 323 323 324 325 325 323 321 320 321 322 325 330 333 336 335 335 336 334 333 331 330 338 354 360 358 359 357 358 360 360 364 365 365 365 361 360 362 360 359 359 358 350 346 345 343 345 344
314 314 315 316 316 316 314 313 312 313 312 313 318 323 326 325 323 322 323 324 326 324 321 322 320 319 322 324 326 326 327 326 325 325 326 327 327 325 323 323 323 322 324 324 323 324 323 319 319 321 324 325 327 331 334 333 335 338 334 330 331 329 334 350 359 355 355 355 354 359 361 363 366 366 366 363 362 362 359 358 358 358 355 348 346 346 345 344
314 314 315 316 317 316 314 312 313 313 312 313 317 321 324 322 319 318 320 319 322 322 320 321 321 319 320 323 326 326 325 325 324 324 326 326 325 325 324 323 324 322 323 324 324 323 322 320 321 323 325 324 326 329 331 335 337 336 334 328 326 330 335 342 353 353 350 350 352 357 359 361 367 366 364 363 363 362 359 360 360 359 357 353 348 346 346 344
314 314 315 317 317 315 313 312 312 312 312 316 320 320 321 321 319 319 318 316 317 319 319 319 319 320 321 322 324 324 323 323 324 325 325 325 325 325 325 325 324 323 322 324 324 320 317 320 324 324 325 325 325 326 329 335 336 334 334 326 323 332 332 331 344 353 351 348 350 355 356 360 366 361 357 356 358 361 360 360 362 363 362 359 353 347 346 345
314 315 316 318 317 315 313 311 312 313 313 317 321 321 321 320 318 319 318 317 316 318 319 318 317 319 321 323 323 321 321 323 324 325 325 324 325 325 326 325 324 324 322 323 324 321 320 324 325 324 327 326 325 328 329 329 329 333 335 328 326 333 333 335 346 352 349 348 350 351 344 347 353 350 350 349 352 360 361 360 361 362 361 357 358 352 346 346
315 316 317 318 317 315 313 312 314 316 317 318 320 321 320 318 318 319 318 318 317 318 318 318 317 317 320 323 322 320 320 321 323 326 326 324 325 326 326 326 324 324 324 322 325 324 323 325 325 325 326 326 327 332 332 331 327 328 335 335 334 336 334 339 349 344 335 337 349 346 336 340 345 342 347 348 354 363 364 363 361 359 358 357 361 359 349 347
315 316 318 317 317 315 314 316 318 319 321 320 320 320 318 320 320 318 317 317 315 317 317 316 316 316 320 322 321 319 319 319 322 326 326 323 325 326 325 325 325 325 324 323 324 323 324 325 324 325 326 328 332 334 336 337 328 321 331 337 337 341 337 335 339 333 323 329 348 345 336 340 347 346 352 353 359 365 364 363 362 360 358 358 362 362 352 346
315 317 317 317 317 315 316 320 319 319 321 321 320 319 318 320 319 318 319 315 313 315 316 314 315 316 319 320 320 318 316 317 320 324 325 322 324 325 324 324 325 324 324 323 320 320 325 326 324 324 327 330 333 333 336 336 327 322 331 337 337 337 337 335 333 326 324 330 341 342 336 340 344 351 360 360 360 362 363 363 364 365 365 361 359 361 356 345
316 317 316 317 317 316 316 318 318 321 321 321 320 319 318 320 318 318 320 316 314 316 316 314 315 317 318 319 318 317 317 318 320 322 324 322 322 323 322 324 323 324 326 323 316 320 325 325 325 326 329 331 332 333 334 334 330 329 332 336 336 336 338 338 331 325 328 326 324 330 331 336 341 351 359 362 357 359 362 362 362 365 367 365 360 359 358 352
316 317 316 316 316 316 316 315 318 321 320 319 319 319 319 319 318 318 319 318 315 315 317 315 315 316 317 318 318 317 319 318 318 321 322 321 322 323 321 323 324 323 325 325 320 324 324 325 327 329 329 331 331 333 331 332 332 332 332 334 334 337 337 338 334 324 324 324 319 322 327 333 340 345 350 357 354 355 362 361 361 362 360 363 361 358 358 357
316 317 315 315 317 320 320 317 319 320 318 319 319 319 319 318 318 316 316 318 316 315 317 314 314 317 317 317 317 318 318 318 319 320 319 320 321 322 322 322 323 325 326 326 325 325 324 327 330 330 331 331 331 332 330 330 332 331 332 333 332 335 336 334 334 326 322 321 319 322 327 331 338 343 345 351 353 354 360 360 360 362 359 361 359 357 359 358
316 316 315 315 317 321 321 321 321 320 319 319 318 319 319 319 318 315 314 317 314 315 317 315 315 316 316 316 317 317 317 319 319 319 318 319 319 320 321 322 323 324 324 323 324 325 325 327 330 330 330 330 330 330 330 331 331 331 332 331 325 325 327 324 324 324 322 320 320 324 328 327 332 343 348 351 354 354 356 358 359 360 360 362 361 359 361 359
315 317 316 315 315 317 318 319 322 321 320 318 319 320 321 321 319 314 315 315 313 314 316 316 317 316 316 316 316 316 317 319 318 319 319 317 317 319 320 322 323 319 316 317 319 323 326 328 330 331 330 331 329 326 328 331 332 333 331 323 318 317 319 318 318 319 319 319 321 324 329 332 335 344 350 352 354 353 354 355 356 358 360 362 362 361 361 359
315 316 317 317 316 316 318 321 321 321 320 319 320 322 323 324 322 315 314 314 312 315 317 316 317 316 316 316 316 316 317 318 319 319 319 318 318 319 320 322 323 320 316 316 316 316 320 326 329 328 328 329 329 323 321 324 329 330 325 317 315 317 317 318 318 318 318 317 320 326 333 336 339 345 350 351 348 350 352 353 356 357 360 362 360 360 360 358
316 316 316 317 317 317 319 321 321 321 322 320 322 324 323 323 323 316 313 314 313 316 317 316 317 316 316 316 315 317 317 318 320 318 318 319 317 317 320 321 322 323 322 318 316 315 315 319 325 327 326 326 328 327 324 326 327 328 329 324 318 315 317 317 315 316 317 316 317 325 335 335 338 345 349 349 347 347 349 352 357 356 358 361 359 359 361 360
316 317 317 318 319 321 322 323 322 322 322 321 323 325 321 319 318 313 313 315 315 316 316 317 317 315 315 317 317 319 318 317 319 319 319 318 317 317 318 320 322 323 322 317 316 317 313 314 324 327 325 326 327 327 329 326 322 326 331 326 317 318 318 314 313 314 314 315 317 323 333 339 343 347 347 345 347 346 347 351 354 353 357 360 359 360 362 360
317 320 322 323 323 325 326 324 323 322 322 323 322 321 320 318 316 314 315 316 315 316 316 315 316 313 312 315 318 319 318 318 318 318 319 319 319 319 319 321 322 322 322 318 317 317 311 313 323 325 322 325 326 327 329 323 318 323 323 319 321 327 323 313 311 314 311 314 322 327 333 338 341 347 348 345 347 346 346 349 351 352 354 356 359 361 362 361
319 323 325 326 323 322 323 322 322 321 322 323 320 318 319 319 316 315 317 317 314 316 315 312 313 313 310 312 315 317 318 318 318 317 316 318 319 319 321 321 322 321 322 320 319 319 315 313 321 323 320 323 325 324 326 324 323 321 316 319 324 325 325 317 313 316 311 313 324 331 332 333 336 344 348 346 346 346 346 347 349 350 351 352 353 355 357 358
321 324 322 321 320 319 321 321 322 322 322 321 319 319 319 316 315 316 316 316 315 316 315 311 313 314 312 312 314 317 318 315 317 316 315 316 317 318 321 321 320 321 322 320 320 321 319 313 316 323 321 320 324 322 320 322 325 323 319 322 324 315 316 316 314 316 313 313 326 332 330 332 334 339 345 346 346 345 345 347 348 349 349 350 350 351 352 354
322 324 322 320 318 319 321 322 321 321 322 320 318 319 318 316 316 316 316 316 317 317 315 314 314 315 316 315 315 317 317 314 316 316 314 316 317 317 319 320 321 321 321 321 321 322 322 315 313 320 322 321 322 319 315 317 322 325 323 325 326 318 315 315 314 317 313 314 327 333 332 337 341 344 347 349 348 345 344 346 347 348 348 348 348 348 349 351
323 323 324 321 318 318 321 321 321 321 320 319 319 319 316 316 316 315 317 317 317 317 317 317 316 315 316 317 316 317 317 317 316 315 315 316 316 317 318 319 319 320 320 321 322 322 323 318 312 317 321 319 317 316 316 317 320 321 318 318 319 318 320 317 316 317 314 314 324 334 337 339 344 350 350 347 347 344 343 344 344 346 346 346 346 346 347 350
325 323 323 320 319 319 319 321 322 323 323 320 319 319 316 317 317 315 316 317 317 317 317 318 317 316 317 317 317 316 317 317 316 317 317 317 316 316 317 318 318 319 319 321 322 320 321 320 314 313 314 313 315 320 323 321 322 322 318 318 319 318 318 315 314 315 314 314 321 334 340 340 344 351 348 341 342 342 341 342 341 343 344 344 344 344 344 347
323 322 322 320 319 318 318 320 321 324 324 321 318 316 317 318 317 316 317 317 317 316 317 318 317 317 317 318 317 316 317 317 317 317 317 317 317 316 317 319 318 319 321 321 322 321 322 322 317 312 313 316 319 322 322 322 324 323 322 323 323 320 316 311 312 314 313 318 326 332 338 342 344 346 343 339 341 340 340 340 340 342 342 341 342 341 341 343
323 322 320 318 318 318 319 321 322 322 320 319 318 316 318 318 317 317 316 316 317 316 316 318 318 318 318 317 317 317 317 316 316 318 318 318 317 316 318 319 318 320 321 321 322 321 321 322 316 313 316 319 321 322 322 323 322 322 321 325 323 321 320 316 317 318 315 320 328 333 337 342 343 342 341 339 340 338 338 339 338 340 340 339 340 339 338 341
323 321 317 317 319 318 319 323 325 323 317 318 318 316 318 317 317 318 317 317 318 317 317 317 317 317 318 317 318 318 317 316 317 318 318 318 316 317 318 317 318 320 318 321 323 320 319 319 317 314 314 314 316 317 317 319 320 320 322 325 324 323 325 322 321 322 316 316 323 332 338 340 340 342 341 337 339 338 337 337 336 337 338 337 338 337 336 339
323 323 319 317 318 318 318 320 324 322 319 318 319 317 317 317 317 318 317 317 317 317 318 317 316 317 318 318 318 318 317 317 316 318 317 316 316 316 316 316 317 315 317 324 327 321 320 321 320 317 314 315 316 314 313 315 318 321 321 323 324 322 324 321 318 317 315 318 326 333 336 340 341 341 339 337 338 337 336 337 336 336 336 336 337 336 336 337
322 326 324 319 318 318 318 318 319 320 319 320 320 319 318 318 317 317 317 317 317 317 318 317 317 317 317 317 318 317 318 317 318 318 318 317 316 316 315 316 315 315 324 331 325 318 323 323 324 323 317 317 319 318 319 319 316 316 318 319 321 322 324 321 317 316 318 322 330 335 337 337 338 340 339 337 337 337 336 337 335 336 336 335 336 335 335 336
323 324 323 321 321 318 318 318 318 318 318 320 321 319 318 318 317 316 316 317 318 317 317 318 317 318 317 318 318 317 318 318 318 318 319 317 316 315 315 315 314 317 327 329 318 317 322 319 321 325 320 319 321 319 321 321 316 315 316 318 320 321 324 320 316 319 320 322 331 340 339 335 336 339 339 337 337 337 336 335 335 335 336 334 335 335 335 335
322 321 320 320 323 322 319 319 318 318 317 319 319 319 318 318 318 318 318 317 317 317 319 319 318 319 319 319 320 321 319 320 320 319 319 318 317 315 316 316 315 316 320 319 315 319 321 316 317 320 318 319 321 319 320 320 319 319 318 318 319 319 321 318 317 322 324 324 332 342 340 337 339 338 337 336 336 336 335 335 334 334 335 335 335 335 335 333
321 321 319 318 320 321 319 316 318 318 318 318 319 319 319 319 318 318 317 318 318 317 318 320 319 319 319 319 324 325 322 321 321 321 320 319 318 317 317 317 316 316 316 316 317 319 317 317 320 318 316 318 319 318 320 318 317 318 317 319 319 318 320 319 320 325 330 331 337 341 339 339 339 337 336 336 334 334 334 334 333 333 334 334 334 334 334 333
322 322 321 321 320 320 318 317 319 318 316 319 320 318 318 318 318 316 317 319 319 318 318 320 319 318 318 319 324 325 322 323 324 322 321 321 319 319 320 319 317 317 316 316 318 317 316 317 323 319 315 315 317 318 318 318 316 316 316 318 318 318 319 320 323 326 329 333 338 338 338 339 337 335 336 335 335 335 335 334 333 333 333 333 333 333 333 333
324 321 321 324 322 319 318 319 320 320 319 320 320 318 318 318 317 316 316 316 319 319 318 318 318 319 320 321 321 322 321 323 323 321 320 320 320 320 320 319 318 318 318 317 318 317 316 317 321 320 314 312 315 316 315 315 316 313 313 315 316 315 316 318 322 326 325 330 336 336 336 337 337 335 335 334 335 335 335 334 334 333 332 332 332 332 332 332
325 324 322 325 323 319 319 320 320 322 322 321 319 319 319 317 317 318 318 317 317 318 318 319 319 320 321 321 319 319 318 319 319 318 317 318 318 318 318 316 317 319 319 318 317 317 317 317 317 316 312 311 314 316 313 313 312 310 311 314 315 316 316 317 322 327 327 329 333 334 335 336 335 333 334 334 334 334 335 334 333 332 332 331 331 331 331 331
Wind_Speed
18 18 18 17 17 17 16 16 16 15 15 14 14 15 14 14 14 14 15 14 14 15 15 14 14 14 13 13 13 13 13 14 14 12 16 15 10 14 14 11 13 13 13 14 14 14 14 15 15 13 10 9 7 6 8 7 4 4 2 1 2 1 2 3 2 4 5 8 8 6 6 7 7 5 4 5 6 8 11 9 12 15 16 20 24 29 30 28
18 18 18 18 17 17 17 16 16 16 15 15 15 15 14 14 15 15 15 15 14 14 15 15 14 14 12 12 12 13 13 14 16 18 23 20 11 12 15 15 14 13 17 17 17 16 13 12 12 12 9 7 6 7 8 4 4 3 1 0 1 1 2 1 4 8 7 8 10 8 6 6 7 7 5 7 10 12 11 10 14 18 20 23 27 29 28 28
18 18 18 18 18 17 17 17 16 16 15 15 15 15 15 15 15 15 16 16 15 14 14 15 14 13 11 10 11 11 11 15 15 16 20 19 19 18 16 17 15 15 22 19 17 16 13 11 12 11 9 8 6 7 6 4 3 2 1 2 0 4 3 3 5 8 9 10 12 9 5 5 6 4 1 5 12 12 10 12 15 19 23 23 23 25 27 27
18 18 18 18 18 17 17 17 17 16 15 15 15 15 15 15 15 16 16 16 16 14 14 14 14 13 10 9 10 9 10 14 7 1 3 8 17 19 18 19 16 17 24 20 16 15 14 12 11 11 9 8 6 7 6 5 3 1 3 3 2 7 3 5 8 9 11 9 10 9 7 5 2 2 5 1 7 10 9 12 17 21 24 24 22 23 24 24
18 18 18 18 17 17 17 17 17 16 16 16 16 15 15 16 16 17 17 17 16 14 13 13 13 11 9 9 7 7 9 6 3 6 5 6 12 15 17 19 17 19 24 22 17 13 14 12 10 10 9 7 7 7 6 6 7 3 4 2 3 9 5 7 11 10 10 8 9 9 7 5 2 3 7 4 1 6 10 13 19 21 22 24 23 22 22 21
19 19 18 18 17 17 17 17 17 16 17 17 16 16 16 16 17 18 18 17 16 14 13 12 12 10 9 8 6 6 8 3 3 4 4 5 9 13 16 17 17 20 23 21 17 14 13 12 10 9 8 8 8 6 7 6 7 5 3 2 3 11 10 9 12 12 9 8 9 8 5 4 3 4 4 2 2 4 10 15 19 20 22 24 23 21 20 20
20 20 19 19 18 17 17 18 17 17 17 17 17 17 17 17 17 18 18 17 16 13 12 11 11 9 8 7 6 6 9 8 2 3 2 2 9 13 14 15 18 20 21 19 16 14 12 12 11 9 8 8 8 8 9 6 7 6 1 2 5 11 15 12 13 13 11 9 9 6 5 5 6 4 1 2 6 8 12 15 18 20 22 24 21 20 20 20
20 20 20 19 19 18 18 19 18 18 17 17 18 17 18 19 18 18 18 18 16 13 11 9 9 7 6 7 7 8 9 6 4 5 2 3 9 13 14 15 19 20 19 18 16 13 11 12 11 9 9 8 8 9 8 8 9 6 1 5 6 12 16 14 14 13 13 9 7 7 6 6 4 3 1 4 5 8 16 16 19 20 20 21 20 21 20 19
19 19 19 19 19 19 19 19 19 18 18 18 18 18 19 19 18 19 18 17 15 12 9 8 7 5 4 5 7 7 2 5 8 4 2 7 10 13 15 15 19 19 16 17 17 15 10 10 11 11 10 8 9 9 9 8 4 3 3 7 7 13 18 16 17 14 13 9 7 8 6 5 3 3 1 7 11 5 16 17 18 20 20 19 19 20 19 18
18 18 19 19 19 20 20 20 19 19 19 18 18 18 19 19 18 18 17 17 14 11 8 6 6 4 4 6 8 5 5 10 8 5 8 12 12 14 16 16 20 19 15 14 16 15 11 10 10 10 11 9 10 7 8 7 3 6 8 9 9 13 19 14 18 15 12 10 9 9 7 5 4 3 1 5 11 5 15 17 18 19 18 18 18 18 17 17
17 18 19 19 19 20 20 20 20 19 19 19 19 19 19 19 18 17 17 16 13 10 6 6 6 5 7 8 8 3 5 7 7 9 11 13 15 16 16 17 20 19 14 12 14 14 13 12 9 7 7 6 9 7 7 8 9 10 10 9 11 11 18 14 17 15 11 9 9 10 9 6 4 1 2 5 8 7 14 17 19 18 17 17 18 17 13 15
18 18 19 20 20 20 20 21 20 19 19 18 19 19 19 19 17 17 17 14 10 7 5 7 6 6 7 8 10 6 0 3 6 9 10 12 14 15 15 17 20 18 14 11 12 13 14 13 10 9 5 2 7 6 5 9 9 8 8 8 10 10 14 13 15 10 8 9 10 11 9 4 2 3 5 7 7 10 14 16 18 17 16 17 17 15 12 14
20 20 20 21 21 20 20 21 19 19 19 18 18 19 18 17 16 16 13 8 5 3 6 7 6 6 7 7 10 9 3 5 8 8 11 12 12 14 13 15 18 17 14 12 10 10 14 13 10 12 8 7 7 3 1 8 7 7 8 7 8 8 9 11 11 6 6 9 13 9 5 4 6 5 8 8 8 12 15 15 17 16 15 16 15 14 13 14
21 21 21 21 21 21 20 20 19 18 19 17 17 18 16 15 15 12 6 2 1 4 6 6 6 6 7 8 7 7 3 4 9 9 11 12 12 14 13 14 16 16 13 13 10 8 12 11 10 11 9 11 9 5 3 7 6 7 8 7 7 4 6 10 11 10 8 9 14 8 2 6 8 7 9 8 8 12 15 15 16 16 15 14 14 13 13 14
22 22 22 21 21 21 20 19 18 17 17 16 15 15 14 12 10 5 1 3 3 5 5 6 8 6 6 10 6 7 6 5 9 11 11 13 13 13 14 14 15 15 12 11 9 7 9 9 9 8 8 12 11 7 6 6 6 7 7 6 7 4 5 9 11 13 11 10 13 7 2 6 8 10 10 8 8 8 11 16 15 16 17 15 14 13 13 14
22 23 22 22 21 21 19 18 17 16 16 14 14 12 10 7 2 2 4 5 5 6 6 6 11 11 6 4 3 8 10 10 10 11 11 12 12 11 13 13 13 12 8 8 6 6 8 7 7 8 9 10 9 7 6 6 7 7 7 5 7 6 7 6 3 7 13 12 8 5 3 5 7 11 12 9 6 5 7 14 16 16 17 16 13 13 13 13
22 22 22 21 20 20 18 17 16 15 14 13 12 9 6 4 3 5 4 6 5 6 9 8 9 12 7 3 3 7 11 12 11 12 11 10 10 10 13 11 10 9 7 8 7 6 6 7 7 7 9 8 7 7 6 7 7 7 7 6 7 7 7 7 1 2 9 10 8 8 5 5 7 11 12 9 7 5 6 11 16 15 15 16 13 13 14 13
22 22 22 21 19 19 18 16 16 14 13 11 8 6 4 3 3 3 3 5 4 6 10 13 10 7 7 9 10 8 12 13 12 12 11 11 10 10 12 9 8 8 7 9 8 6 6 7 7 7 8 8 8 8 7 7 8 8 8 5 7 6 4 9 6 5 8 8 8 10 8 7 9 11 11 8 6 5 4 5 10 15 15 15 14 14 14 14
23 23 22 22 20 19 17 14 14 13 12 7 3 5 4 2 3 5 8 7 7 7 5 6 11 5 2 8 13 11 13 14 13 12 12 11 10 10 11 9 8 9 8 7 8 9 7 6 8 8 8 9 10 10 10 10 9 8 9 7 7 5 5 8 10 9 10 9 8 7 6 7 9 11 10 6 4 4 2 5 5 10 15 15 13 14 14 14
23 23 23 22 20 19 17 14 12 12 11 5 1 5 5 4 4 5 9 11 11 10 8 3 14 11 3 7 13 12 13 14 12 11 13 11 9 11 12 10 9 9 9 8 8 9 8 7 8 9 9 11 13 13 13 15 13 9 7 8 7 6 7 10 12 12 11 8 7 8 7 6 4 7 8 7 6 3 2 4 9 8 11 14 15 15 16 14
24 24 22 21 19 18 16 15 11 10 9 6 3 6 6 4 4 1 3 10 14 15 15 10 13 15 10 2 11 13 10 11 11 11 13 12 10 11 10 10 10 8 10 11 9 8 9 8 9 11 13 14 14 14 15 16 12 10 7 6 7 8 6 12 12 13 12 7 8 10 9 7 5 5 6 7 9 7 6 9 9 9 10 13 14 16 16 14
24 23 21 19 18 16 15 14 11 8 7 6 6 9 8 8 7 6 6 7 11 15 15 13 12 12 11 5 10 13 7 9 12 11 13 13 12 10 9 10 10 8 10 13 9 7 8 9 12 13 13 15 14 14 15 13 11 10 7 5 7 6 5 11 12 13 10 5 9 12 10 7 7 5 5 3 5 5 6 7 6 8 10 11 12 15 16 14
24 23 21 17 17 17 14 11 8 7 8 8 9 12 10 8 8 8 8 7 8 11 13 12 11 9 6 2 7 12 11 10 12 13 14 13 12 10 9 10 10 10 11 13 10 8 8 9 13 14 12 14 15 13 13 11 10 9 6 5 6 7 8 7 10 13 10 6 10 13 10 7 7 5 4 1 2 2 2 3 2 5 5 5 8 12 15 15
23 22 19 16 16 15 12 8 5 7 9 11 15 14 9 7 8 10 7 7 8 8 10 11 10 9 9 6 7 11 11 9 10 12 15 13 11 9 9 10 11 11 10 14 14 10 9 10 13 15 12 13 14 13 13 9 8 7 8 7 5 9 9 9 12 12 11 8 10 12 8 6 8 8 4 2 3 5 3 5 4 1 4 8 8 7 13 14
22 21 18 14 13 13 11 8 7 9 9 12 17 11 7 6 6 9 5 7 7 6 8 10 9 9 11 11 9 10 10 9 10 12 15 14 13 9 8 8 8 11 12 15 15 10 11 12 13 14 14 13 13 11 10 7 6 7 9 8 6 9 7 12 19 13 7 7 10 11 5 4 7 10 8 4 5 7 5 6 6 4 3 7 6 5 11 13
20 18 16 13 12 12 10 6 5 8 10 10 7 3 4 4 5 8 5 6 6 5 7 9 9 7 9 10 10 9 11 10 9 12 15 14 15 9 7 6 6 10 12 12 10 7 9 12 12 14 13 12 10 8 8 8 7 6 9 11 9 10 9 8 15 11 6 5 12 15 5 4 4 5 6 5 6 7 4 3 6 7 4 6 3 5 9 13
19 15 13 11 10 10 7 7 8 8 6 3 1 3 4 4 6 7 5 6 5 5 7 7 7 7 8 9 10 9 7 7 10 14 14 14 14 9 8 8 7 9 10 8 7 6 9 13 13 15 12 10 8 7 9 11 8 7 9 13 12 10 10 9 10 9 5 4 10 15 7 5 3 2 3 2 6 9 6 2 2 6 6 6 4 6 11 13
17 12 10 9 8 8 9 11 13 11 6 5 3 5 4 4 6 5 5 4 2 4 5 6 4 4 8 9 11 11 3 8 10 11 11 14 14 10 9 9 8 12 11 8 7 6 11 15 13 14 12 9 8 8 12 12 10 11 6 5 11 12 10 10 9 6 4 3 6 11 9 5 3 1 2 1 4 8 9 7 5 5 5 4 3 6 7 7
16 10 8 8 8 10 11 10 12 12 10 8 5 6 5 5 5 4 5 3 1 2 2 4 4 5 8 10 14 15 6 7 7 9 11 14 13 11 8 7 11 13 13 9 8 8 11 12 10 10 9 8 9 10 13 11 10 11 4 4 7 12 10 9 7 5 4 4 6 9 11 7 3 3 4 3 4 4 6 8 8 7 7 5 4 5 6 6
15 9 7 7 8 10 9 9 13 12 7 7 6 7 7 6 5 5 4 1 2 4 5 3 6 8 9 11 13 14 10 8 7 10 10 9 12 12 7 6 10 12 11 10 10 11 9 8 7 8 9 9 10 10 11 9 10 11 5 3 5 6 8 8 5 5 6 6 9 8 11 9 3 4 4 4 5 2 3 6 7 8 9 8 6 7 7 5
14 9 7 7 7 8 9 7 8 7 5 6 7 6 7 5 4 6 2 1 1 4 6 6 9 11 11 13 12 10 11 8 6 9 8 6 10 10 7 6 6 8 8 8 10 10 8 7 8 6 10 7 7 9 8 7 8 10 8 7 5 4 6 7 6 8 7 5 10 8 11 8 2 4 4 6 8 4 2 3 5 6 6 6 7 7 4 1
15 11 11 12 10 9 12 9 7 7 5 6 6 6 5 3 4 4 1 2 2 3 4 8 11 12 13 14 12 12 13 8 7 7 8 8 9 8 8 8 6 6 7 8 8 5 6 6 7 7 10 7 10 8 5 2 4 8 8 7 7 6 7 6 6 8 7 6 10 8 9 8 4 7 7 8 10 7 4 4 5 5 2 2 4 4 4 3
15 13 14 15 14 13 13 11 9 7 5 6 6 4 1 2 4 4 2 1 2 4 6 9 12 12 14 14 11 13 13 9 10 10 10 10 9 10 12 12 10 9 7 8 9 7 5 7 8 11 10 7 10 9 6 4 7 9 9 7 8 7 7 7 7 7 7 8 9 5 10 8 5 8 8 9 10 9 8 8 9 7 3 3 4 3 4 3
14 16 16 16 17 18 15 10 8 7 6 7 5 2 1 2 5 7 3 1 1 2 5 8 12 13 16 13 11 13 11 9 13 11 10 11 8 9 10 11 12 9 5 7 8 8 8 7 10 13 7 9 10 11 3 3 7 10 9 7 9 8 7 7 7 7 7 7 8 9 9 6 6 7 9 10 10 10 11 11 11 8 5 6 5 4 5 3
15 16 15 14 16 17 14 10 7 6 6 6 2 1 3 4 4 3 1 1 1 4 6 8 10 13 14 11 10 11 8 8 12 12 10 10 7 10 11 10 10 6 4 6 4 7 12 9 12 10 3 7 14 14 7 6 6 9 7 7 7 8 8 6 6 8 9 6 6 7 6 6 7 8 10 12 12 12 14 13 12 10 7 6 5 4 5 4
16 13 10 13 14 12 11 9 6 6 7 6 3 1 4 6 3 3 3 3 1 2 7 10 10 10 9 6 7 10 7 5 10 11 10 6 2 3 9 9 6 1 2 3 3 5 11 6 13 12 4 8 16 15 9 6 5 5 9 10 8 9 10 7 5 8 10 7 5 6 9 9 8 8 9 11 14 14 15 14 12 10 8 7 6 5 4 3
16 11 8 9 7 5 7 7 6 7 7 5 4 4 4 3 4 4 2 2 4 5 6 6 6 7 7 6 6 9 8 5 9 8 6 5 6 4 1 4 4 3 4 3 6 8 6 4 11 12 8 8 10 10 8 9 10 5 5 5 7 11 10 5 3 5 8 6 5 9 14 12 8 7 8 10 14 15 14 14 12 10 10 10 9 7 5 4
15 12 8 4 4 4 6 8 7 7 6 4 3 6 5 2 2 3 2 3 3 4 4 4 3 4 5 5 6 8 7 4 8 7 4 6 3 3 2 4 3 2 5 6 7 10 6 5 9 9 10 9 6 5 6 11 15 9 5 5 6 8 7 4 3 4 7 6 7 11 14 11 6 6 8 9 12 14 14 14 13 11 10 10 9 9 8 5
12 10 5 3 5 4 7 8 7 6 4 3 3 5 4 3 2 2 2 3 4 5 1 1 2 1 1 4 6 9 9 6 8 8 5 6 4 3 3 3 3 4 7 8 7 8 6 4 7 8 10 9 7 6 7 9 12 10 8 8 8 5 4 6 6 5 7 5 8 10 9 5 3 3 7 9 9 12 15 14 12 11 10 10 10 9 9 7
9 7 3 4 4 5 8 9 6 5 2 2 3 3 3 4 3 3 1 3 4 4 2 3 5 3 2 7 8 7 9 8 7 4 2 2 3 2 3 2 4 7 8 9 9 7 5 3 4 6 8 6 6 9 8 7 8 8 7 8 7 4 4 5 7 6 7 4 6 10 7 3 1 1 5 10 11 13 15 13 11 10 9 10 10 10 9 8
9 6 3 5 3 5 9 8 4 3 2 3 4 1 4 4 3 3 3 2 2 2 3 3 6 2 2 5 6 5 6 5 3 2 2 1 1 2 3 3 4 6 7 8 7 4 2 1 1 4 7 6 8 8 3 1 1 3 6 7 6 6 5 5 7 9 8 3 5 9 7 6 4 2 3 8 11 14 15 14 11 10 11 10 10 11 11 10
9 4 3 4 3 6 9 5 3 4 3 2 2 3 2 3 4 2 2 1 3 2 4 2 2 2 1 1 2 5 4 3 3 3 4 4 6 6 4 5 6 5 6 8 4 7 6 3 3 1 5 3 5 6 2 3 5 7 5 4 3 5 7 6 5 5 5 4 10 10 7 6 4 5 5 7 10 12 14 13 11 12 12 10 10 11 11 10
7 2 3 2 4 8 7 3 5 6 2 2 0 3 2 3 3 3 1 0 4 1 4 0 2 1 1 1 2 5 2 5 3 3 6 6 7 7 6 8 9 6 5 6 6 8 6 4 2 2 2 3 4 2 2 3 4 6 5 3 3 2 3 5 3 4 3 4 9 6 5 6 5 5 7 8 8 11 12 11 11 11 11 9 10 11 10 10
6 3 3 4 4 7 6 1 4 4 3 2 2 3 2 4 5 5 3 3 4 1 4 2 1 2 1 2 3 2 5 3 2 3 5 5 4 5 7 9 10 8 7 7 7 6 4 3 1 1 4 5 3 2 5 6 4 5 7 4 3 6 9 9 4 3 4 1 8 6 5 6 6 6 7 8 9 11 11 11 11 10 9 9 9 9 9 10
7 4 2 4 6 8 4 2 3 1 4 2 2 4 3 2 3 6 6 5 5 5 3 2 1 1 2 2 1 3 4 3 1 2 4 6 4 3 6 8 10 9 8 8 9 6 4 3 1 2 4 4 3 2 4 7 4 4 7 4 4 6 7 7 4 2 4 4 9 7 7 7 6 7 9 9 10 11 11 11 12 11 10 10 9 9 9 9
5 4 2 2 4 4 1 2 3 3 2 2 1 1 1 2 4 1 4 4 4 5 4 3 1 1 2 2 2 4 4 4 5 2 3 6 4 3 5 6 8 9 9 11 10 5 3 2 3 2 4 3 1 4 2 2 5 9 9 4 3 6 6 4 3 2 2 5 8 8 12 14 12 11 11 11 10 10 10 10 10 10 11 12 11 9 9 10
4 4 3 1 1 1 1 0 2 2 1 1 1 1 2 1 3 2 0 2 2 3 3 2 3 2 2 3 4 3 1 3 6 4 3 6 5 5 4 4 7 7 10 8 5 4 3 2 5 3 2 3 4 5 5 6 6 11 9 4 3 4 7 5 5 2 4 3 4 9 14 16 15 14 14 12 10 10 9 9 8 8 9 11 11 11 12 11
4 3 3 3 3 3 2 4 4 3 3 2 1 2 2 1 1 2 3 1 1 2 2 1 2 3 3 1 1 2 1 3 4 4 5 4 4 6 4 3 5 2 5 4 4 3 4 4 3 5 4 0 4 5 5 8 6 3 4 3 2 3 4 7 8 5 7 4 7 11 14 15 14 14 14 12 10 9 10 9 8 7 8 10 10 11 12 12
5 2 3 2 2 3 3 3 4 3 5 3 1 2 3 2 3 4 4 2 0 1 3 1 1 2 4 4 4 2 1 2 3 3 2 2 3 4 3 4 4 0 2 2 3 2 3 4 2 1 1 1 3 4 4 6 6 5 3 3 2 4 3 5 6 5 6 9 13 15 15 14 12 13 14 11 9 8 8 8 7 6 7 9 10 11 11 12
6 4 3 2 1 3 2 2 3 1 4 0 1 2 3 4 5 4 4 7 4 2 2 1 3 2 1 2 3 4 3 3 3 5 1 1 1 1 1 3 3 2 2 2 2 1 0 3 4 4 5 4 4 2 4 4 3 3 3 1 2 6 4 3 2 2 4 10 14 15 15 13 10 12 13 10 8 8 7 7 8 7 6 7 9 10 11 11
10 7 5 5 2 2 3 2 2 1 2 2 1 2 2 4 6 4 5 8 8 5 4 3 4 3 3 6 7 7 5 3 4 5 3 3 3 1 2 3 2 1 1 0 1 1 1 1 1 2 5 6 6 6 7 6 3 7 9 5 5 6 5 4 2 1 2 9 16 15 11 10 10 11 12 9 9 9 7 6 6 6 8 8 8 9 10 10
12 9 7 6 2 1 3 1 0 1 2 4 5 5 4 5 5 4 3 4 6 7 7 5 3 1 5 9 8 8 7 6 6 5 3 3 3 2 3 2 2 2 2 2 0 2 2 2 2 3 5 6 7 7 4 4 4 7 9 8 9 7 7 5 3 4 4 2 11 11 8 10 12 11 12 11 11 10 9 7 6 6 6 5 5 7 8 8
Wind_Direction
341 340 339 340 340 338 337 337 336 335 334 332 331 329 327 325 322 320 319 319 317 313 311 308 302 302 309 318 320 320 322 309 293 268 245 245 232 230 245 233 223 222 194 188 206 205 203 213 218 220 223 224 219 233 234 219 223 252 276 339 308 316 347 331 41 114 143 134 141 169 170 136 131 182 186 171 212 173 138 129 137 136 129 129 134 137 139 142
339 339 339 339 338 338 337 336 334 333 332 330 329 327 325 322 320 319 318 319 318 314 311 307 301 300 307 317 321 324 324 300 280 266 251 245 236 231 235 233 234 213 184 195 212 206 206 208 208 211 218 224 209 219 227 200 201 231 298 272 259 68 65 29 114 124 138 144 149 154 151 136 143 171 180 168 168 155 137 131 134 128 123 127 136 140 141 144
339 338 338 338 337 337 335 334 333 332 330 328 327 325 322 320 318 317 317 317 318 317 310 305 301 298 305 317 322 328 319 297 277 263 256 240 229 232 230 229 231 205 189 200 210 206 215 208 202 209 217 224 212 209 203 172 209 184 143 262 118 106 87 97 122 121 135 145 139 133 139 141 143 163 201 169 158 147 139 141 137 129 130 136 140 142 144 146
337 336 337 337 336 336 334 333 331 330 328 326 324 323 321 319 317 316 316 315 317 318 310 305 300 296 306 315 322 333 307 288 274 266 276 209 214 225 229 228 224 204 197 208 218 213 220 217 206 211 220 226 217 217 211 174 189 158 179 260 119 131 121 118 121 116 130 136 126 122 127 135 137 41 27 10 165 146 145 147 140 136 138 141 143 145 147 147
336 335 336 336 336 334 333 332 331 330 327 324 323 322 320 318 317 315 314 313 315 316 310 303 298 296 303 312 327 322 294 281 109 92 90 157 198 214 223 223 213 201 201 215 230 222 222 227 213 212 226 235 223 217 232 191 170 210 216 251 152 150 144 126 125 118 121 121 113 109 121 152 190 44 38 21 222 145 144 144 140 141 142 143 146 147 148 148
335 335 335 335 335 333 332 331 331 330 326 324 322 321 320 318 315 314 313 312 311 311 309 302 297 297 298 310 328 294 268 292 64 109 131 163 194 203 214 215 202 198 204 220 236 227 221 230 219 214 226 232 232 221 238 210 169 224 210 236 225 151 142 133 126 122 122 120 112 113 145 161 119 76 34 74 229 211 147 140 140 141 143 144 145 148 150 151
335 335 334 334 334 333 331 329 330 329 325 323 320 320 319 316 314 314 312 310 308 307 304 297 293 292 298 307 302 262 245 270 327 114 123 179 193 198 205 201 193 196 207 221 233 226 216 226 221 215 225 229 233 221 233 218 182 243 259 274 251 137 130 132 129 130 127 118 109 122 148 125 106 103 334 215 231 212 154 142 143 142 147 146 148 152 153 153
334 334 333 334 333 332 331 329 329 327 324 321 319 320 318 316 316 315 311 308 308 304 295 290 287 283 299 307 282 251 241 246 126 108 57 164 177 185 187 186 189 195 208 221 229 225 214 226 223 216 227 227 227 213 224 224 193 216 232 293 274 124 127 131 127 129 121 112 114 126 120 114 117 101 259 281 277 190 151 146 145 145 150 149 153 153 153 157
333 334 336 334 332 331 329 329 327 325 323 319 319 319 317 318 318 314 310 308 309 303 289 278 274 268 288 294 274 267 241 110 112 106 103 150 164 171 175 177 185 192 207 225 235 229 216 226 223 224 236 239 245 217 209 228 209 215 192 278 278 127 131 132 124 128 121 120 137 126 109 124 132 76 310 293 298 200 145 145 148 149 153 152 155 153 156 159
337 338 336 334 332 329 328 327 325 323 320 318 320 319 317 319 317 314 310 308 309 299 278 257 254 246 257 258 260 268 114 108 112 126 135 146 153 164 175 178 181 189 206 225 233 226 221 232 224 228 245 263 275 239 205 205 185 233 212 247 262 123 123 131 124 128 123 127 145 130 122 129 113 84 138 274 279 215 143 147 152 151 154 155 154 153 159 158
339 338 333 331 329 326 326 324 323 321 318 319 321 319 318 319 316 313 309 307 304 290 260 236 229 224 252 257 255 262 116 126 124 134 146 146 154 169 179 179 180 190 210 225 225 220 224 238 243 239 236 260 274 248 220 196 173 216 213 228 244 125 123 138 123 126 128 132 149 131 116 102 88 93 209 241 253 189 150 154 154 154 156 155 151 153 162 159
334 333 330 328 326 323 322 320 320 318 318 321 320 319 319 318 315 312 309 305 297 280 227 214 209 215 258 264 248 257 65 162 139 137 153 150 162 176 180 182 185 198 219 229 218 218 230 241 258 259 249 306 274 255 225 201 186 219 220 226 225 144 126 124 108 119 131 136 155 131 103 99 164 186 194 224 225 174 164 160 156 157 157 154 150 155 163 157
331 330 327 325 323 321 319 317 318 317 317 320 318 318 318 317 315 312 309 301 285 237 202 200 196 222 256 269 237 229 234 170 148 141 156 161 170 178 187 188 191 210 230 239 224 217 233 245 261 266 278 287 268 340 349 205 194 226 232 239 221 160 123 108 103 138 143 140 162 147 107 175 205 199 188 210 210 181 172 164 161 159 158 154 151 159 160 155
331 329 326 324 321 320 318 316 318 316 315 318 317 316 318 317 314 311 308 290 177 171 188 186 191 223 244 271 249 193 186 155 155 163 163 169 175 177 194 195 197 215 230 244 244 226 233 245 257 268 280 266 266 349 316 220 194 225 234 235 227 183 142 142 144 163 155 152 170 163 127 183 191 202 203 207 205 192 176 167 165 160 160 155 153 162 156 156
333 331 328 326 322 319 317 316 318 314 313 317 315 315 316 316 313 304 175 138 148 170 182 185 201 225 247 260 248 162 186 196 176 181 173 178 181 179 193 195 201 213 225 243 252 243 238 247 250 254 262 255 265 290 262 222 198 222 233 222 221 201 147 155 159 161 152 156 179 177 145 178 184 189 195 200 209 211 183 172 169 163 161 155 157 164 156 160
335 332 330 329 324 320 317 317 316 311 313 316 313 313 312 308 308 155 155 152 162 176 178 192 202 217 266 279 155 156 197 211 190 183 182 187 188 185 187 188 198 211 229 234 248 261 234 239 248 242 257 253 247 253 238 218 201 206 222 226 222 198 154 149 157 157 147 145 175 192 159 170 179 181 181 186 210 232 200 179 170 167 162 154 161 165 157 162
336 335 333 330 326 321 320 318 313 309 313 316 309 307 305 282 185 151 163 166 177 186 200 245 224 209 253 299 181 187 198 202 188 180 185 189 190 185 177 181 197 204 215 209 228 268 215 213 242 234 248 249 231 230 231 223 202 194 210 222 233 220 165 143 105 194 161 149 164 181 185 176 167 175 175 177 197 222 222 189 171 171 164 155 166 167 158 165
337 337 334 330 328 324 322 319 313 310 312 314 308 307 308 269 184 166 191 171 186 218 230 258 254 221 246 238 222 203 190 190 180 176 183 185 186 178 174 187 195 190 203 207 216 238 205 199 228 229 226 231 231 222 223 227 208 195 199 210 231 227 125 130 151 202 184 155 160 176 182 174 159 166 173 174 189 209 241 223 181 176 167 160 170 167 160 167
337 336 335 331 329 325 322 320 312 308 310 308 320 326 313 260 232 234 231 206 193 220 244 220 208 235 301 202 205 196 181 176 170 179 185 183 180 171 181 198 194 192 205 206 200 206 204 198 214 228 222 217 222 222 229 239 239 218 190 199 228 200 113 137 157 166 171 154 155 171 162 154 155 163 166 162 191 201 241 298 256 192 168 165 175 168 161 168
338 337 336 330 329 327 323 320 308 304 305 287 307 309 272 241 247 216 211 217 219 241 286 215 199 231 292 165 185 177 160 162 174 190 185 182 179 173 184 195 192 201 213 208 194 193 203 211 212 220 224 222 220 225 238 244 258 271 208 189 221 213 149 154 155 150 164 163 155 158 135 126 164 174 149 141 182 188 150 260 269 237 178 171 177 166 162 168
340 338 336 329 327 326 321 318 303 296 292 257 250 273 262 306 323 331 203 221 224 238 262 260 218 235 275 229 161 151 144 167 188 194 182 184 188 178 177 189 194 197 214 218 201 189 206 222 221 218 224 232 229 222 234 246 256 275 254 187 202 233 160 142 149 154 171 173 154 148 125 129 194 195 141 145 178 175 184 212 235 238 196 179 180 165 162 168
339 338 335 329 325 325 324 315 297 286 272 236 234 245 264 337 347 331 315 260 234 225 235 252 242 242 277 304 146 157 180 185 187 188 179 185 192 183 170 186 203 195 204 219 206 189 209 225 228 223 221 232 239 226 227 245 246 248 252 205 202 216 134 135 149 156 175 178 150 144 123 140 188 179 134 154 195 163 187 220 244 243 207 186 184 164 162 170
338 337 335 332 326 329 329 312 290 272 247 218 231 246 269 327 341 315 296 283 265 223 211 227 240 239 246 265 150 181 207 192 187 184 176 190 201 196 184 189 209 206 202 212 210 200 208 222 227 230 225 227 237 228 219 232 239 240 232 214 209 174 143 149 159 160 178 182 147 140 125 142 171 152 114 320 267 121 196 233 352 314 272 231 208 171 165 170
337 335 337 338 326 330 333 313 283 261 238 223 240 256 289 321 325 320 298 274 275 224 203 209 220 227 210 196 176 198 215 199 191 178 171 196 208 200 206 201 205 215 209 210 215 217 221 219 217 229 233 227 234 224 212 219 227 239 233 222 204 190 177 143 150 169 181 169 142 139 129 136 157 144 133 256 201 153 195 190 130 48 277 274 262 192 171 168
337 335 338 340 325 326 329 304 252 233 224 229 242 253 301 322 319 324 314 271 264 199 192 198 203 217 202 193 186 203 223 209 195 174 168 202 213 194 212 215 209 221 211 208 217 221 229 223 205 221 227 220 235 225 204 216 220 220 227 227 200 213 220 133 145 173 185 159 154 162 148 131 158 138 138 195 173 162 190 177 153 143 220 266 275 220 187 170
336 333 336 337 323 320 319 303 255 230 222 227 237 256 297 321 339 319 296 262 247 171 164 179 185 188 190 193 184 205 227 209 191 170 166 206 224 211 220 213 202 229 219 206 218 224 233 230 206 216 219 208 232 234 198 208 231 221 204 210 205 215 233 162 157 182 200 169 171 190 197 112 149 110 122 164 142 152 188 149 137 135 194 248 240 238 212 175
335 331 333 330 320 316 308 318 321 289 253 219 33 338 298 340 342 308 276 257 230 171 148 157 168 168 185 189 176 204 225 172 172 169 169 203 221 228 238 216 194 228 232 207 208 219 227 229 213 211 210 195 212 233 210 198 222 244 201 195 203 211 227 216 203 205 199 160 168 199 213 113 126 27 72 163 142 144 150 127 129 141 186 229 209 231 220 180
333 327 326 321 311 303 291 302 306 297 322 13 340 298 310 329 306 276 266 275 188 156 142 137 137 180 200 183 186 213 172 128 165 161 171 200 209 222 231 234 229 222 227 221 207 200 217 229 220 205 202 196 204 226 224 202 207 239 235 197 202 206 227 235 230 225 205 185 183 208 207 129 118 168 108 142 164 148 141 156 190 173 185 222 231 246 240 203
332 321 315 312 297 281 276 286 290 295 329 347 316 309 311 290 277 252 263 296 136 164 148 143 157 198 198 173 198 219 174 159 194 157 172 199 210 229 236 266 269 233 217 221 217 202 209 224 220 207 205 198 204 223 229 214 212 232 283 335 218 194 213 236 237 249 239 229 231 212 184 142 104 136 136 130 138 132 129 147 167 177 190 194 210 246 243 243
331 310 297 300 289 280 273 259 257 271 319 333 310 311 292 267 256 239 225 217 199 172 132 153 184 184 188 179 197 218 207 208 197 158 171 189 204 232 268 299 284 251 213 199 225 235 219 190 177 215 225 204 202 217 226 220 219 226 220 251 235 191 211 229 223 250 244 231 250 221 156 142 140 131 136 130 119 113 116 123 137 165 187 177 182 219 214 221
328 300 277 275 282 292 286 263 257 274 329 329 301 282 269 252 243 245 207 84 271 157 139 174 180 174 191 196 188 199 212 204 154 160 176 181 202 223 249 238 241 248 213 189 224 250 246 184 153 224 243 236 234 216 212 218 220 232 215 193 209 198 219 226 207 232 239 225 246 218 136 124 155 137 134 134 131 135 117 109 118 140 172 168 173 193 179 124
324 293 263 254 263 280 280 290 325 331 329 314 289 265 268 258 236 237 197 251 223 160 204 196 174 178 193 199 189 188 204 180 147 198 194 185 203 200 216 216 191 215 215 196 198 209 250 209 154 217 223 232 259 219 185 235 220 243 236 192 200 201 203 224 215 219 226 226 239 212 123 93 86 116 130 131 131 137 127 126 125 120 136 130 132 140 122 112
318 294 270 259 257 264 271 285 314 318 299 281 271 269 321 53 281 262 180 243 160 157 226 190 166 185 193 193 188 190 207 179 165 204 198 193 203 186 210 223 197 210 223 204 189 169 218 203 181 226 202 183 254 226 167 203 203 231 246 197 197 210 193 210 225 219 220 224 219 158 97 97 118 118 124 120 118 124 112 108 117 121 121 82 62 78 106 110
310 290 280 270 260 263 268 274 288 290 276 261 258 288 101 149 256 252 185 200 197 161 220 181 164 185 196 195 183 186 206 180 169 194 189 190 200 181 206 226 214 230 233 206 202 183 206 202 193 224 184 140 236 246 230 266 205 216 247 210 199 219 208 204 214 214 218 215 185 137 103 124 144 123 126 122 116 117 105 99 104 101 90 78 57 65 103 106
304 289 283 273 260 258 256 252 260 260 257 259 256 9 287 245 240 242 187 234 182 165 202 199 182 189 196 197 188 190 202 174 176 199 192 181 197 193 194 205 216 252 242 206 211 195 221 221 173 194 226 168 215 242 272 296 227 197 224 230 215 232 242 234 225 224 221 204 168 139 108 112 130 130 134 125 115 109 97 93 93 87 85 84 63 63 97 113
304 290 266 252 247 238 224 219 229 230 236 258 259 215 249 265 301 1 344 326 5 197 209 202 192 192 187 186 200 195 183 182 195 200 190 162 81 206 187 172 176 311 340 237 289 231 225 209 139 152 230 208 209 229 234 253 255 185 197 223 233 245 259 262 248 246 233 202 141 117 114 121 135 135 131 122 111 101 91 86 84 84 87 80 68 68 87 121
310 292 253 236 230 202 191 193 202 219 238 263 282 278 255 260 304 330 307 291 336 306 239 201 194 197 176 176 211 192 162 193 211 192 175 137 50 13 154 101 93 40 3 333 307 281 236 143 133 156 193 195 208 238 232 236 252 224 193 231 246 243 255 277 293 272 241 203 134 130 133 137 146 136 135 130 113 101 94 87 78 73 72 64 59 54 62 134
308 291 273 219 155 146 170 182 200 219 246 261 272 283 293 2 343 327 301 255 310 299 232 196 207 195 167 177 208 197 174 190 203 191 190 170 125 3 353 38 37 337 320 315 303 294 275 151 148 177 197 184 189 241 237 239 251 263 297 306 268 242 236 224 251 279 238 194 130 138 143 137 140 140 138 128 113 105 95 83 72 61 56 57 56 42 37 87
290 276 271 159 143 157 162 174 210 233 254 279 284 281 306 28 37 12 313 283 4 14 -0 301 264 210 194 226 215 198 192 195 200 200 208 179 144 4 352 13 359 341 314 296 293 297 281 164 150 183 193 172 173 214 220 223 237 251 269 260 239 250 263 213 215 261 251 197 134 144 151 122 80 109 124 114 108 105 94 81 72 59 49 48 51 42 30 43
270 265 252 185 167 168 174 185 222 254 277 272 263 285 359 26 28 60 25 313 18 37 16 258 234 221 253 232 217 206 199 196 203 194 148 144 124 31 20 21 328 329 321 288 285 298 268 183 145 174 178 164 179 204 211 207 210 216 232 237 220 230 287 246 214 229 258 250 148 141 136 113 33 319 127 117 109 105 96 89 82 69 59 50 43 42 36 31
276 274 199 196 194 183 202 211 230 268 295 255 242 327 21 345 343 75 117 264 317 70 46 274 224 197 306 228 193 208 207 176 166 126 104 134 54 31 32 17 316 312 313 277 270 326 324 220 134 164 180 198 186 176 180 320 296 255 228 221 214 211 234 239 215 217 242 266 126 129 119 119 149 198 139 107 101 105 101 97 94 84 76 66 49 41 37 31
276 281 137 186 209 198 221 247 264 234 194 223 236 75 35 295 321 11 121 229 296 75 69 328 237 157 256 275 163 213 208 106 114 136 116 75 40 29 22 1 330 310 302 285 299 23 11 317 317 170 179 183 138 124 72 1 342 313 264 225 231 219 219 230 229 231 231 111 103 122 122 112 146 163 130 99 95 102 99 96 100 94 81 71 60 51 43 38
254 259 98 144 202 210 236 285 274 250 144 110 254 66 9 327 1 346 112 0 297 174 123 317 328 336 209 158 221 215 127 52 34 86 89 79 52 25 15 6 351 348 341 327 353 14 350 293 320 24 130 112 99 115 264 278 311 291 245 237 287 298 306 301 341 358 304 110 103 114 118 122 157 149 117 111 110 106 97 95 100 96 88 81 70 59 52 51
284 282 107 106 176 225 260 276 243 249 93 100 221 121 55 11 17 1 32 34 332 20 117 130 305 314 81 147 226 166 97 63 358 59 74 81 66 25 20 14 6 20 32 7 357 357 327 270 258 246 193 167 152 202 225 225 253 245 216 228 336 354 342 335 11 19 305 69 102 113 116 124 151 145 130 138 130 115 107 102 96 87 84 84 80 71 61 58
304 285 153 130 186 226 274 327 268 272 108 170 211 148 159 129 41 356 4 16 359 8 54 104 167 262 136 163 190 113 138 177 144 76 83 87 85 54 38 24 20 33 34 -0 342 338 324 320 344 265 234 180 166 249 213 195 214 246 237 258 334 322 315 332 3 326 299 42 82 114 132 126 143 150 140 135 124 111 106 106 102 97 93 85 77 75 70 63
301 284 260 161 197 225 287 346 327 15 86 188 183 159 242 124 109 19 330 351 14 3 7 45 354 233 158 205 195 156 181 162 132 167 149 114 110 76 46 39 43 29 3 348 346 347 318 327 70 31 336 36 23 313 328 170 205 219 226 239 306 313 316 322 323 332 36 66 83 119 137 138 147 150 135 122 118 111 104 103 100 102 105 99 91 82 74 69
290 306 328 13 329 297 149 349 343 28 39 3 66 326 311 38 117 140 334 352 2 336 348 15 301 275 160 208 203 166 188 142 145 168 125 100 100 94 63 51 64 20 338 334 349 356 308 271 137 152 297 16 357 334 355 337 257 211 204 201 225 306 337 307 266 328 32 50 114 134 140 140 142 144 135 124 122 117 111 106 98 96 98 98 101 98 85 76
287 312 18 22 329 326 28 12 359 49 76 44 23 297 307 5 52 69 72 25 294 289 312 272 280 330 29 37 109 121 120 118 123 110 97 105 130 137 134 84 80 15 317 338 14 1 301 279 166 175 203 240 334 325 330 335 347 117 119 81 196 255 304 276 267 331 16 54 134 143 142 137 136 137 130 121 122 122 115 110 104 110 112 98 89 87 82 77
321 338 37 20 304 337 23 356 333 41 62 27 3 10 356 40 64 43 20 348 103 41 324 291 137 9 14 31 44 86 86 65 109 120 117 153 169 158 143 105 102 60 323 29 36 23 307 319 355 332 290 227 273 310 309 328 12 61 89 60 359 303 283 262 282 357 52 107 131 138 134 130 133 130 118 105 104 106 103 95 74 65 99 109 97 81 72 70
346 8 11 307 308 356 346 271 276 100 95 317 278 62 18 35 69 69 16 -0 33 93 308 305 93 52 357 61 80 109 77 18 127 144 129 28 138 222 70 90 93 39 6 9 23 65 18 350 353 329 311 254 214 241 279 292 338 309 253 187 280 290 286 276 304 33 106 122 127 130 129 128 132 126 115 107 104 100 92 89 76 53 53 82 91 85 74 63
345 354 343 307 346 358 297 288 290 258 128 136 77 55 60 66 60 60 43 19 21 42 32 48 78 64 81 80 70 82 80 44 83 101 77 39 41 28 51 56 38 -0 20 210 334 328 213 239 303 272 274 251 209 209 240 252 265 268 260 232 219 247 253 239 217 212 152 135 134 137 136 135 138 130 122 124 125 118 103 89 87 73 51 45 52 63 62 53
351 348 337 311 310 245 266 285 311 283 58 68 50 33 46 73 55 22 30 34 28 32 29 39 56 60 102 91 65 50 47 42 55 59 41 40 45 63 78 43 340 350 39 103 221 282 266 264 219 208 247 244 197 190 230 249 238 254 255 229 209 220 242 234 161 67 5 151 154 156 146 134 140 143 140 143 142 131 117 99 90 89 83 72 67 69 62 50